Weather History for Joplin, MO

Change the Weather History Date:

Saturday, November 3, 2012

  Actual Average Record
Temperature  
Mean Temperature 53 °F 54 °F  
Max Temperature 69 °F 65 °F 83 °F (1978)
Min Temperature 37 °F 43 °F 13 °F (1991)
Degree Days  
Heating Degree Days 12 12  
Month to date heating degree days 25 34  
Since 1 July heating degree days 349 286  
Cooling Degree Days 0 1  
Month to date cooling degree days 0 3  
Year to date cooling degree days 2102 1694  
Growing Degree Days 6 (Base 50)    
Moisture  
Dew Point 38 °F    
Average Humidity 62    
Maximum Humidity 82    
Minimum Humidity 44    
Precipitation  
Precipitation 0.00 in 0.13 in 2.05 in (1974)
Month to date precipitation 0.00 0.39  
Year to date precipitation 35.65 40.34  
Sea Level Pressure  
Sea Level Pressure 30.08 in    
Wind  
Wind Speed 8 mph (NNW)    
Max Wind Speed 18 mph    
Max Gust Speed 25 mph    
Visibility 10 miles    
Events      
T = Trace of Precipitation, MM = Missing Value Source: NWS Daily Summary

Daily Weather History Graph

Daily Weather History Graph

Search for Another Location

Airport:

Trip Planner

Search our weather history database for the weather conditions in past years. The results will help you decide how hot, cold, wet, or windy it might be!

Date:

Astronomy

Nov. 03, 2012 Rise Set
Actual Time 7:44 AM CDT 6:17 PM CDT
Civil Twilight 7:17 AM CDT 6:44 PM CDT
Nautical Twilight 6:46 AM CDT 7:15 PM CDT
Astronomical Twilight 6:16 AM CDT 7:46 PM CDT
Moon 10:01 PM CDT (11/3) 11:47 AM CDT (11/3)
Length of Visible Light 11h 26m
Length of Day
10h 32m
Waning Gibbous, 80% of the Moon is Illuminated
Nov 3
Waning Gibbous
Nov 6
Last Quarter
Nov 13
New
Nov 20
First Quarter
Nov 28
Full

Hourly Weather History & Observations

Time (CDT) Temp. Windchill Dew Point Humidity Pressure Visibility Wind Dir Wind Speed Gust Speed Precip Events Conditions
12:53 AM 70.0 °F - 50.0 °F 49% 29.85 in 10.0 mi SSW 15.0 mph - N/A   Clear
1:53 AM 68.0 °F - 48.9 °F 50% 29.86 in 10.0 mi SSW 17.3 mph - N/A   Clear
2:53 AM 66.9 °F - 50.0 °F 54% 29.88 in 10.0 mi SW 12.7 mph - N/A   Clear
3:43 AM 53.6 °F - 44.6 °F 72% 29.93 in 10.0 mi NW 13.8 mph - N/A   Clear
3:53 AM 52.0 °F - 43.0 °F 71% 29.93 in 10.0 mi NNW 11.5 mph - N/A   Clear
4:53 AM 46.9 °F - 37.9 °F 71% 29.97 in 10.0 mi NNW 9.2 mph - N/A   Clear
5:53 AM 45.0 °F 41.2 °F 36.0 °F 71% 30.02 in 10.0 mi NW 6.9 mph - N/A   Clear
6:53 AM 43.0 °F 38.8 °F 36.0 °F 76% 30.05 in 10.0 mi NW 6.9 mph - N/A   Clear
7:53 AM 41.0 °F 37.1 °F 35.1 °F 79% 30.07 in 10.0 mi NW 5.8 mph - N/A   Clear
8:53 AM 44.1 °F 39.5 °F 36.0 °F 73% 30.11 in 10.0 mi NW 8.1 mph - N/A   Clear
9:53 AM 46.9 °F - 36.0 °F 66% 30.12 in 10.0 mi NW 9.2 mph - N/A   Clear
10:53 AM 50.0 °F - 36.0 °F 59% 30.13 in 10.0 mi North 11.5 mph 20.7 mph N/A   Clear
11:53 AM 53.1 °F - 36.0 °F 52% 30.14 in 10.0 mi North 12.7 mph - N/A   Clear
12:53 PM 55.9 °F - 37.0 °F 49% 30.13 in 10.0 mi North 10.4 mph - N/A   Clear
1:53 PM 57.0 °F - 37.9 °F 49% 30.12 in 10.0 mi NNW 12.7 mph - N/A   Clear
2:53 PM 59.0 °F - 37.9 °F 46% 30.12 in 10.0 mi NNW 10.4 mph - N/A   Clear
3:53 PM 57.9 °F - 37.0 °F 46% 30.13 in 10.0 mi NNW 11.5 mph - N/A   Clear
4:53 PM 57.9 °F - 36.0 °F 44% 30.14 in 10.0 mi NNW 9.2 mph - N/A   Clear
5:53 PM 55.0 °F - 34.0 °F 45% 30.14 in 10.0 mi North 6.9 mph - N/A   Clear
6:53 PM 51.1 °F - 35.1 °F 54% 30.16 in 10.0 mi North 8.1 mph - N/A   Clear
7:53 PM 45.0 °F 41.8 °F 35.1 °F 68% 30.18 in 10.0 mi North 5.8 mph - N/A   Clear
8:53 PM 46.0 °F 44.8 °F 36.0 °F 68% 30.18 in 10.0 mi NE 3.5 mph - N/A   Clear
9:53 PM 44.1 °F - 36.0 °F 73% 30.19 in 10.0 mi Calm Calm - N/A   Clear
10:53 PM 42.1 °F - 36.0 °F 79% 30.20 in 10.0 mi Calm Calm - N/A   Clear
11:53 PM 41.0 °F - 36.0 °F 82% 30.20 in 9.0 mi Calm Calm - N/A   Clear